Location: Arclight Observatory
(36.5667°N, 87.3333°W)
Time: 11:58:58
(UTC-05:00)

ISS - Visible Passes

Search period start: 25 September 2017 00:00
Search period end: 05 October 2017 00:00
Orbit: 401 x 407 km, 51.6° (Epoch: 26 September)

Date Brightness Start Highest point End Pass type
(mag) Time Alt. Az. Time Alt. Az. Time Alt. Az.
25 Sep -2.5 20:26:55 10° WSW 20:29:59 37° NW 20:30:16 36° NNW visible
26 Sep -3.7 19:34:20 10° SW 19:37:35 76° NW 19:40:35 12° NE visible
26 Sep -0.3 21:13:00 10° NW 21:13:16 11° NW 21:13:16 11° NW visible
27 Sep -1.3 20:19:31 10° WNW 20:21:55 19° NNW 20:23:22 15° N visible
28 Sep -2.1 19:26:27 10° W 19:29:23 30° NW 19:32:20 10° NNE visible
29 Sep -0.8 20:12:54 10° NW 20:13:58 11° NNW 20:15:02 10° N visible
30 Sep -1.2 19:19:08 10° WNW 19:21:17 16° NNW 19:23:27 10° NNE visible
